Home > Weather > Boulder > Past weeks

Flag for USA Weather for the Past 2 Weeks in Boulder, Colorado, USA

Now
45 °F

Passing clouds.


Feels Like: 42 °F
Forecast: 38 / 66 °F
Wind: 5 mph from Northwest

Location: Broomfield / Jeffco

Current Time: May 3, 2016 at 4:49:13 AM

Latest Report: May 3, 2016 at 4:15 AM


Visibility: 10 mi

Pressure: 30.18 "Hg (24.76 "Hg at 1623m altitude)

Humidity: 53%

Dew Point: 28 °F

Location of BoulderLocation

Historic Weather in Boulder — Graph

°F

Boulder Temperature Yesterday

Maximum temperature yesterday: 59 °F (at 3:52 PM)
Minimum temperature yesterday: 32 °F (at 2:35 AM)
Average temperature yesterday: 41 °F

High & Low Weather Summary for the Past Weeks

 TemperatureHumidityPressure
High77 °F (Apr 22, 2:49 PM)100% (Apr 27, 2:34 AM)30.35 "Hg (Apr 27, 2:34 AM)
Low30 °F (Apr 27, 6:46 AM)16% (Apr 23, 1:50 PM)29.56 "Hg (Apr 25, 5:46 PM)
Average44 °F69%29.99 "Hg
* Reported Apr 18 3:15 AM — May 3 3:15 AM, Boulder, Weather by CustomWeather, © 2016

Note: Actual official high and low records may vary slightly from our data, if they occured in-between our weather recording intervals... More about our weather records

Advertising

Boulder Weather History for the Previous 24 Hours

Scroll right to see more
 ConditionsComfort  
Time TempWeatherWind HumidityBarometerVisibility
3:15 AM
Tue, May 3
45 °FClear.8 mph53%30.16 "Hg10 mi
2:54 AM46 °FClear.7 mph50%30.16 "Hg10 mi
2:36 AM45 °FClear.5 mph53%30.16 "Hg10 mi
2:16 AM46 °FPassing clouds.6 mph53%30.17 "Hg10 mi
1:55 AM45 °FClear.6 mph61%30.17 "Hg10 mi
1:36 AM45 °FClear.8 mph61%30.17 "Hg10 mi
12:55 AM45 °FClear.12 mph61%30.17 "Hg10 mi
12:35 AM48 °FPassing clouds.7 mph50%30.15 "Hg10 mi
12:14 AM45 °FPassing clouds.3 mph61%30.15 "Hg10 mi
11:35 PM
Mon, May 2
45 °FPassing clouds.3 mph61%30.15 "Hg10 mi
9:59 PM48 °FPassing clouds.7 mph50%30.15 "Hg30 mi
8:45 PM50 °FScattered clouds.3 mph43%30.14 "Hg30 mi
6:47 PM57 °FScattered clouds.6 mph33%30.12 "Hg50 mi
4:47 PM59 °FPassing clouds.3 mph29%30.12 "Hg50 mi
3:52 PM59 °FPassing clouds.3 mph27%30.13 "Hg50 mi
2:47 PM57 °FPassing clouds.3 mph29%30.16 "Hg50 mi
1:47 PM55 °FPassing clouds.3 mph31%30.18 "Hg50 mi
12:45 PM52 °FPassing clouds.5 mph30%30.20 "Hg50 mi
11:48 AM48 °FPassing clouds.No wind32%30.22 "Hg30 mi
10:45 AM45 °FSunny.No wind46%30.24 "Hg30 mi
9:48 AM43 °FSunny.6 mph61%30.25 "Hg30 mi
8:50 AM39 °FSunny.No wind65%30.27 "Hg30 mi
7:47 AM36 °FSunny.5 mph81%30.27 "Hg30 mi
6:55 AM32 °FClear.3 mph80%30.26 "Hg30 mi
5:55 AM32 °FClear.3 mph80%30.24 "Hg10 mi
5:36 AM32 °FClear.No wind80%30.24 "Hg10 mi
5:16 AM34 °FClear.No wind81%30.24 "Hg10 mi
4:55 AM32 °FClear.3 mph87%30.24 "Hg10 mi
4:35 AM32 °FClear.3 mph87%30.24 "Hg10 mi
4:15 AM32 °FClear.5 mph87%30.25 "Hg10 mi
Weather by CustomWeather, © 2016

See weather overviewHow to use our weather pages